Weather History for Omaha, NE

Change the Weather History Date:

Tuesday, February 12, 2013

  Actual Average Record
Temperature  
Mean Temperature 35 °F 27 °F  
Max Temperature 49 °F 37 °F 71 °F (1990)
Min Temperature 20 °F 17 °F -22 °F (1899)
Degree Days  
Heating Degree Days 30 38  
Month to date heating degree days 390 471  
Since 1 July heating degree days 3880 4236  
Cooling Degree Days 0 0  
Month to date cooling degree days 0 0  
Year to date cooling degree days 0 0  
Moisture  
Dew Point 20 °F    
Average Humidity 63    
Maximum Humidity 92    
Minimum Humidity 34    
Precipitation  
Precipitation 0.00 in 0.03 in 1.02 in (1949)
Month to date precipitation 0.03 0.33  
Year to date precipitation 0.53 1.05  
Snow  
Snow 0.00 in 0.20 in - ()
Month to date snowfall T 2.8  
Since 1 July snowfall 12.1 17.9  
Snow Depth 0.00 in    
Sea Level Pressure  
Sea Level Pressure 30.04 in    
Wind  
Wind Speed 6 mph (SSW)    
Max Wind Speed 16 mph    
Max Gust Speed 21 mph    
Visibility 9 miles    
Events Fog    
T = Trace of Precipitation, MM = Missing Value Source: NWS Daily Summary

Daily Weather History Graph

Daily Weather History Graph

Search for Another Location

Airport:

Trip Planner

Search our weather history database for the weather conditions in past years. The results will help you decide how hot, cold, wet, or windy it might be!

Date:

Astronomy

Feb. 12, 2013 Rise Set
Actual Time 7:21 AM CST 5:54 PM CST
Civil Twilight 6:53 AM CST 6:22 PM CST
Nautical Twilight 6:21 AM CST 6:55 PM CST
Astronomical Twilight 5:48 AM CST 7:27 PM CST
Moon 8:17 AM CST (2/12) 8:58 PM CST (2/12)
Length of Visible Light 11h 29m
Length of Day
10h 32m
Waxing Crescent, 7% of the Moon is Illuminated
Feb 12
Waxing Crescent
Feb 17
First Quarter
Feb 25
Full
Mar 4
Last Quarter
Mar 11
New

Hourly Weather History & Observations

Time (CST) Temp. Windchill Dew Point Humidity Pressure Visibility Wind Dir Wind Speed Gust Speed Precip Events Conditions
12:52 AM 23.0 °F - 18.0 °F 81% 30.19 in 10.0 mi Calm Calm - N/A   Clear
1:52 AM 21.9 °F 17.2 °F 18.0 °F 85% 30.19 in 9.0 mi SE 3.5 mph - N/A   Clear
2:52 AM 23.0 °F - 19.0 °F 85% 30.17 in 9.0 mi Calm Calm - N/A   Clear
3:52 AM 21.0 °F 16.2 °F 17.1 °F 85% 30.14 in 7.0 mi ESE 3.5 mph - N/A   Clear
4:52 AM 21.9 °F 15.7 °F 18.0 °F 85% 30.14 in 8.0 mi SSE 4.6 mph - N/A   Clear
5:52 AM 21.9 °F 12.5 °F 19.0 °F 89% 30.15 in 7.0 mi SSE 8.1 mph - N/A   Clear
6:52 AM 21.0 °F 11.4 °F 18.0 °F 88% 30.15 in 7.0 mi SE 8.1 mph - N/A   Clear
7:52 AM 21.9 °F 14.5 °F 19.0 °F 89% 30.12 in 7.0 mi SE 5.8 mph - N/A Fog Patches of Fog
8:52 AM 26.1 °F 16.8 °F 21.9 °F 84% 30.09 in 7.0 mi SSE 9.2 mph - N/A Fog Patches of Fog
9:52 AM 32.0 °F 23.0 °F 24.1 °F 73% 30.10 in 10.0 mi South 11.5 mph - N/A   Partly Cloudy
10:52 AM 37.0 °F 28.9 °F 23.0 °F 57% 30.09 in 10.0 mi SSW 12.7 mph - N/A   Partly Cloudy
11:52 AM 42.1 °F 37.7 °F 23.0 °F 47% 30.07 in 10.0 mi SW 6.9 mph - N/A   Partly Cloudy
12:52 PM 45.0 °F 39.3 °F 21.0 °F 39% 30.02 in 10.0 mi SW 11.5 mph - N/A   Scattered Clouds
1:52 PM 46.9 °F - 21.9 °F 37% 29.99 in 10.0 mi SSW 10.4 mph - N/A   Scattered Clouds
2:52 PM 48.9 °F - 21.9 °F 35% 29.96 in 10.0 mi WSW 11.5 mph 17.3 mph N/A   Scattered Clouds
3:52 PM 48.9 °F - 21.9 °F 35% 29.95 in 10.0 mi West 10.4 mph - N/A   Scattered Clouds
4:52 PM 48.0 °F - 21.0 °F 34% 29.94 in 10.0 mi WSW 8.1 mph - N/A   Scattered Clouds
5:52 PM 45.0 °F 41.8 °F 19.0 °F 36% 29.93 in 10.0 mi WSW 5.8 mph - N/A   Scattered Clouds
6:52 PM 43.0 °F 40.3 °F 19.9 °F 40% 29.93 in 10.0 mi SW 4.6 mph - N/A   Partly Cloudy
7:52 PM 34.0 °F 28.8 °F 21.9 °F 61% 29.95 in 10.0 mi NW 5.8 mph - N/A   Partly Cloudy
8:52 PM 33.1 °F 26.1 °F 19.9 °F 59% 29.96 in 10.0 mi North 8.1 mph - N/A   Clear
9:52 PM 30.9 °F 27.5 °F 21.0 °F 67% 29.95 in 10.0 mi NNW 3.5 mph - N/A   Clear
10:52 PM 30.0 °F - 21.0 °F 69% 29.94 in 10.0 mi Calm Calm - N/A   Clear
11:52 PM 27.0 °F - 21.0 °F 78% 29.94 in 10.0 mi Calm Calm - N/A   Clear